Location: Unspecified
(51.0950°N, 12.9690°E)
Time: 07:40:48
(UTC+00:00)

PCSat - Pass Details

Date: 23 April 2024
Orbit: 783 x 792 km, 67.1° (Epoch: 24 May)

Event Time Altitude Azimuth Distance (km) Brightness Sun altitude
Rises 22:07:18 0° 299° (WNW) 3,293 13.4 -24.7°
Reaches altitude 10° 22:10:53 10° 323° (NW) 2,366 12.9 -24.8°
Maximum altitude 22:13:53 15° 357° (N) 2,051 12.6 -25.0°
Drops below altitude 10° 22:16:53 10° 31° (NNE) 2,369 12.6 -25.1°
Sets 22:20:28 0° 55° (NE) 3,300 13.1 -25.2°
